Tracking 19796 objects as of 19-Jul-2019
HD Live streaming from Space Station
objects crossing your sky now

ALE-1

Track ALE-1 now!
10-day predictions


NORAD ID: 43938
Int'l Code: 2019-003G
Perigee: 485.8 km
Apogee: 519.8 km
Inclination: 97.3 °
Period: 94.5 minutes
Semi major axis: 6873 km
RCS: Unknown
Launch date: January 18, 2019
Source: Japan (JPN)
Launch site: KAGOSHIMA SPACE CENTER UNIVERSITY OF TOKYO (KSCUT)
aabbcc
Your satellite tracking list
Your tracking list is empty




NASA's NSSDC Master Catalog

Two Line Element Set (TLE):
1 43938U 19003G   19199.70676836 +.00000213 +00000-0 +11835-4 0  9990
2 43938 097.2807 256.8094 0024728 332.6950 027.2985 15.23374897027659
Source of the keplerian elements: AFSPC